Regional Weather Roundup
Issued by NWS

Home | Current Version | Previous Version | Graphics & Text | Print | Product List | Glossary On
Versions: 1 2 3 4 5 6 7 8 9 10 11 12 13 14 15 16 17 18 19 20 21 22 23 24 25 26 27 28 29 30 31 32 33 34 35 36 37 38 39 40 41 42 43 44 45 46 47 48 49 50
150
ASUS45 KSLC 182110
RWRUT

UTAH REGIONAL WEATHER ROUNDUP
NATIONAL WEATHER SERVICE SALT LAKE CITY UT
200 PM MST WED JAN 18 2017

UTZ001>011-023>025-182200-

NORTHERN UTAH

CITY           SKY/WX    TMP DP  RH WIND       PRES   REMARKS
BRIGHAM CITY     N/A     23  15  71 N3        30.07F
DUGWAY         PTSUNNY   25  23  93 SE5       30.05F FOG     WCI  19
HILL AFB       MOSUNNY   25  17  69 NW6       30.02F WCI  18
LOGAN          MOSUNNY   12   6  77 N3        30.07F HAZE
OGDEN          MOSUNNY   24  18  77 N5        30.04F HAZE    WCI  18
SALT LAKE CITY MOSUNNY   28  21  75 NW13      30.05F WCI  17
TOOELE VALLEY  CLOUDY    27  23  86 N3        30.06F FOG
WENDOVER       CLOUDY    25  18  74 E7        30.02F WCI  17
HEBER CITY     SUNNY     21  10  63 CALM      29.99F
WEST JORDAN    MOSUNNY   28  27  94 NW15      30.04S WCI  17

$$

UTZ011>015-024>027-182200-

CENTRAL/NORTHEAST UTAH

CITY           SKY/WX    TMP DP  RH WIND       PRES   REMARKS
PROVO AIRPORT  SUNNY     30  22  72 W7        30.02F WCI  23
MOAB/CANYONLAN SUNNY     39  25  57 NW8       30.04F WCI  33
DELTA          SUNNY     37  23  56 NW5       30.00F WCI  34
PRICE          SUNNY     27  12  53 CALM      30.03F
RICHFIELD      SUNNY     39  21  48 NE1       30.01
ROOSEVELT      CLOUDY    21  10  63 E3        30.14F
VERNAL         CLOUDY    18  10  71 NE3       30.11F

$$

UTZ013>016-019>022-027-182200-

SOUTHERN UTAH

CITY           SKY/WX    TMP DP  RH WIND       PRES   REMARKS
BRYCE CANYON   SUNNY     34  23  64 SE14      30.02F WCI  25
CEDAR CITY     SUNNY     46  26  45 SW18      29.98F
MILFORD        SUNNY     45  26  47 SW20      29.97F
ST GEORGE      CLEAR     46  28  49 CALM      30.08F
HANKSVILLE     SUNNY     39  23  52 MISG      30.09F
KANAB          SUNNY     50  28  43 S10       30.08
BLANDING       PTSUNNY   40  30  65 SW6       30.11F

$$

REGIONAL REPORTS     COLORADO/ARIZONA

CITY           SKY/WX    TMP DP  RH WIND       PRES   REMARKS
CRAIG, CO      CLOUDY    16  11  80 CALM      30.03F
GRAND JUNCTION SUNNY     42  31  64 N5        30.03F
RIFLE, CO      SUNNY     42  22  44 CALM      30.01F
MONTROSE, CO   SUNNY     42  24  49 CALM      30.03F
CORTEZ, CO     CLOUDY    43  31  62 VRB6      30.04F
COLORADO CITY    N/A     52  28  40 W5        30.07F
PAGE, AZ       SUNNY     46  27  47 VRB3      30.04F
GRAND CANYON   SUNNY     44  21  40 W12       30.08F
KINGMAN, AZ    SUNNY     57  24  28 SW15      30.06F
FLAGSTAFF, AZ  SUNNY     42  26  53 W14G23    30.08F

$$

REGIONAL REPORTS    NEVADA/IDAHO/WYOMING

CITY           SKY/WX    TMP DP  RH WIND       PRES   REMARKS
LAS VEGAS, NV  PTSUNNY   53  19  26 NE5       30.03F
ELY, NY        PTSUNNY   40  18  41 CALM      29.92F
ELKO, NV       CLOUDY    24  13  62 E8        29.91F WCI  15
POCATELLO, ID  CLOUDY    25  14  63 E6        29.98F WCI  18
BURLEY, ID     CLOUDY    36  19  50 NE6       29.87F WCI  31
FORT BRIDGER,    N/A     21  13  72 S5        29.97F WCI  14
EVANSTON, WY   CLOUDY    24  11  57 S9        29.94F WCI  14
ROCK SPRINGS,  CLOUDY    12   6  77 S3        29.96F
KEMMERER, WY     N/A     30  10  43 NW3       29.94F

$$




USA.gov is the U.S. government's official web portal to all federal, state and local government web resources and services.